GPS BIIR-10 (PRN 22)

Last updated on Thu Jan 20 2022 00:02:58 GMT+0000 (Coordinated Universal Time)

1 28129U 03058A 22019.47668314 -.00000022 00000+0 00000+0 0 9994 2 28129 53.7501 87.6500 0070873 309.7975 49.6448 2.00568468132501
UTC large
Height (km)
Speed (km/s)
/
Latitude / Longitude
Inclination (degrees)
Orbital Period (minutes)
Azimuth
Elevation
Range (km)
Doppler Factor

Next 0 passes for location: London (51.5072 / 0.1276)

Sorry there are no passes over London.
GPS BIIR-10 (PRN 22)